Location: Atherton
(17.2661°S, 145.4859°E)
Time: 18:37:48
(UTC+10:00)

ACS3 Solar Sail - Pass Details

Date: 25 May 2025
Orbit: 920 x 1019 km, 97.5° (Epoch: 20 June)

Event Time Altitude Azimuth Distance (km) Brightness Sun altitude
Rises 19:02:39 0° 196° (SSW) 3,776 4.9 -16.9°
Reaches altitude 10° 19:06:13 10° 216° (SW) 2,823 4.4 -17.7°
Maximum altitude 19:09:52 16° 252° (WSW) 2,399 4.6 -18.5°
Drops below altitude 10° 19:13:30 10° 287° (WNW) 2,805 5.5 -19.4°
Sets 19:17:04 0° 307° (NW) 3,739 6.1 -20.2°
